| time (UTC) | temp F | wind direction | speed knots | gust knots | rain 1hr in | rain 24hr in | rain mn in | humidity % | barometer mb |
| 20260901100017 | 76 | 180 | 3.5 | 6.1 | 0.00 | 0.00 | 0.00 | 86 | 995.5 |
| 20260901093017 | 76 | 203 | 2.6 | 5.2 | 0.00 | 0.00 | 0.00 | 85 | 995.2 |
| 20260901090017 | 77 | 203 | 3.5 | 6.1 | 0.00 | 0.00 | 0.00 | 84 | 995.3 |
| 20260901083017 | 78 | 203 | 2.6 | 5.2 | 0.00 | 0.00 | 0.00 | 83 | 995.2 |
| 20260901080017 | 79 | 225 | 3.5 | 5.2 | 0.00 | 0.00 | 0.00 | 81 | 995.3 |
| 20260901073017 | 79 | 225 | 3.5 | 7.0 | 0.00 | 0.00 | 0.00 | 81 | 995.4 |
| 20260901070017 | 79 | 203 | 3.5 | 6.1 | 0.00 | 0.00 | 0.00 | 81 | 995.5 |
| 20260901063057 | 79 | 203 | 2.6 | 5.2 | 0.00 | 0.00 | 0.00 | 82 | 995.4 |
| 20260901060017 | 80 | 225 | 3.5 | 5.2 | 0.00 | 0.00 | 0.00 | 81 | 995.3 |
| 20260901053017 | 80 | 203 | 3.5 | 5.2 | 0.00 | 0.00 | 0.00 | 81 | 995.1 |
| 20260901050017 | 80 | 203 | 3.5 | 5.2 | 0.00 | 0.00 | 0.00 | 82 | 995.1 |
| 20260901043036 | 80 | 203 | 2.6 | 5.2 | 0.00 | 0.00 | 0.00 | 82 | 994.9 |
| 20260901040016 | 81 | 203 | 3.5 | 5.2 | 0.00 | 0.00 | 0.00 | 81 | 994.8 |
| 20260901033017 | 81 | 203 | 3.5 | 5.2 | 0.00 | 0.00 | 0.00 | 81 | 994.8 |
| 20260901030016 | 82 | 203 | 3.5 | 5.2 | 0.00 | 0.00 | 0.00 | 80 | 994.8 |
| 20260901023019 | 83 | 203 | 3.5 | 6.1 | 0.00 | 0.00 | 0.00 | 79 | 994.7 |
| 20260901020017 | 83 | 203 | 3.5 | 6.1 | 0.00 | 0.00 | 0.00 | 79 | 994.5 |
| 20260901013019 | 84 | 203 | 3.5 | 4.3 | 0.00 | 0.00 | 0.00 | 78 | 994.3 |
| 20260901010017 | 85 | 203 | 3.5 | 5.2 | 0.00 | 0.00 | 0.00 | 77 | 994.0 |
| 20260901003037 | 86 | 203 | 2.6 | 4.3 | 0.00 | 0.00 | 0.00 | 74 | 993.8 |
| 20260901000017 | 88 | 203 | 2.6 | 5.2 | 0.00 | 0.00 | 0.00 | 71 | 993.8 |
| 20260831233017 | 90 | 225 | 3.5 | 5.2 | 0.00 | 0.00 | 0.00 | 69 | 993.9 |
| 20260831230017 | 91 | 225 | 4.3 | 6.1 | 0.00 | 0.00 | 0.00 | 65 | 993.8 |
| 20260831223017 | 91 | 203 | 4.3 | 8.7 | 0.00 | 0.00 | 0.00 | 65 | 993.6 |
| 20260831220037 | 92 | 225 | 5.2 | 9.6 | 0.00 | 0.00 | 0.00 | 63 | 993.8 |
| 20260831213017 | 92 | 225 | 5.2 | 9.6 | 0.00 | 0.00 | 0.00 | 60 | 993.8 |
| 20260831210017 | 92 | 225 | 5.2 | 9.6 | 0.00 | 0.00 | 0.00 | 60 | 994.0 |
| 20260831203017 | 91 | 225 | 5.2 | 9.6 | 0.00 | 0.00 | 0.00 | 60 | 994.0 |
| 20260831200017 | 90 | 225 | 6.1 | 12.2 | 0.00 | 0.00 | 0.00 | 62 | 994.0 |
| 20260831193037 | 92 | 225 | 7.0 | 13.0 | 0.00 | 0.00 | 0.00 | 58 | 994.1 |
| 20260831190017 | 91 | 225 | 7.0 | 13.9 | 0.00 | 0.00 | 0.00 | 57 | 994.0 |
| 20260831183018 | 91 | 225 | 7.8 | 13.0 | 0.00 | 0.00 | 0.00 | 58 | 994.3 |
| 20260831180017 | 90 | 225 | 7.0 | 13.9 | 0.00 | 0.00 | 0.00 | 58 | 994.3 |
| 20260831173017 | 90 | 225 | 7.8 | 13.0 | 0.00 | 0.00 | 0.00 | 62 | 994.4 |
| 20260831170017 | 88 | 225 | 7.0 | 13.0 | 0.00 | 0.00 | 0.00 | 63 | 994.6 |
| 20260831163017 | 87 | 225 | 7.8 | 13.0 | 0.00 | 0.00 | 0.00 | 65 | 994.8 |
| 20260831160017 | 85 | 225 | 8.7 | 14.8 | 0.00 | 0.00 | 0.00 | 64 | 994.7 |
| 20260831153018 | 85 | 225 | 9.6 | 19.1 | 0.00 | 0.00 | 0.00 | 64 | 994.5 |
| 20260831150017 | 84 | 225 | 9.6 | 17.4 | 0.00 | 0.00 | 0.00 | 65 | 994.2 |
| 20260831143017 | 82 | 203 | 9.6 | 17.4 | 0.00 | 0.00 | 0.00 | 67 | 994.2 |
| 20260831140037 | 80 | 203 | 9.6 | 18.2 | 0.00 | 0.00 | 0.00 | 69 | 994.2 |
| 20260831133017 | 79 | 203 | 9.6 | 17.4 | 0.00 | 0.00 | 0.00 | 69 | 994.0 |
| 20260831130017 | 79 | 203 | 8.7 | 17.4 | 0.00 | 0.00 | 0.00 | 71 | 994.0 |
| 20260831123017 | 78 | 203 | 8.7 | 16.5 | 0.00 | 0.00 | 0.00 | 71 | 994.1 |
| 20260831120017 | 78 | 203 | 8.7 | 18.2 | 0.00 | 0.00 | 0.00 | 71 | 993.9 |
| 20260831113039 | 78 | 203 | 7.8 | 16.5 | 0.00 | 0.00 | 0.00 | 71 | 993.8 |
| 20260831110017 | 78 | 203 | 7.8 | 14.8 | 0.00 | 0.00 | 0.00 | 72 | 993.8 |
| 20260831103019 | 76 | 180 | 6.1 | 11.3 | 0.00 | 0.00 | 0.00 | 75 | 993.9 |